[[[{"header":{"parameterUnit":"kt","parameterCategory":2,"dx":1,"dy":1,"la1":30.253999710083008,"la2":30.299108505249023,"lo1":-89.0895004272461,"lo2":-89.04439544677734,"nx":28,"ny":28,"refTime":"2022-10-17T21:00:00:Z","depth":0,"parameterNumber":1,"parameterNumberName":"U-component_of_WINDS"},"data":[-0.4035,-0.4028,-0.4018,-0.4005,-0.3994,-0.3982,-0.3975,-0.3965,-0.3954,-0.3939,-0.3928,-0.3917,-0.3901,-0.3886,-0.3873,-0.3868,-0.3863,-0.3867,-0.3861,-0.3852,-0.385,-0.3848,-0.3849,-0.3867,-0.3867,-0.3872,-0.3872,-0.3872,-0.4028,-0.4018,-0.4008,-0.3992,-0.3983,-0.3973,-0.3959,-0.3952,-0.3943,-0.3929,-0.3918,-0.3904,-0.3891,-0.3874,-0.3859,-0.3855,-0.3849,-0.3851,-0.3851,-0.3849,-0.3839,-0.384,-0.3856,-0.3856,-0.3856,-0.3856,-0.3856,-0.3856,-0.4013,-0.4009,-0.3994,-0.3983,-0.3972,-0.3961,-0.3956,-0.3942,-0.3932,-0.3917,-0.3907,-0.3895,-0.3879,-0.3857,-0.3847,-0.3837,-0.3832,-0.3832,-0.3832,-0.3832,-0.3833,-0.3826,-0.3834,-0.3834,-0.3834,-0.3834,-0.3834,0,-0.3998,-0.3991,-0.3981,-0.3968,-0.396,-0.3949,-0.3937,-0.3933,-0.3913,-0.3905,-0.3893,-0.3885,-0.3867,-0.3854,-0.3839,-0.3828,-0.3816,-0.3814,-0.3814,-0.3818,-0.3824,-0.382,-0.3803,-0.3814,-0.3814,-0.3814,-0.3814,-0.3814,-0.3982,-0.3978,-0.3958,-0.3952,-0.3943,-0.3935,-0.3927,-0.391,-0.3902,-0.3885,-0.3882,-0.3869,-0.3858,-0.384,-0.3824,-0.3811,-0.3805,-0.381,-0.3802,-0.3807,-0.3804,-0.3804,-0.3803,-0.3811,-0.3812,-0.3812,-0.3812,0,-0.3973,-0.3957,-0.3949,-0.3929,-0.3924,-0.3921,-0.3903,-0.3898,-0.3886,-0.3877,-0.3874,-0.3855,-0.3843,-0.3826,-0.381,-0.3801,-0.3794,-0.3789,-0.3799,-0.3797,-0.38,-0.3799,-0.3811,-0.3812,-0.3794,-0.3794,-0.3794,0,-0.3952,-0.3948,-0.3925,-0.3921,-0.3916,-0.3899,-0.3894,-0.3884,-0.387,-0.3863,-0.3848,-0.3841,-0.3821,-0.3812,-0.3799,-0.3791,-0.3788,-0.378,-0.3777,-0.3781,-0.3782,-0.3777,-0.3776,-0.377,-0.377,-0.377,-0.377,0,-0.394,-0.3923,-0.3917,-0.3911,-0.3889,-0.3886,-0.3877,-0.3862,-0.3855,-0.3843,-0.3838,-0.3825,-0.3818,-0.3808,-0.3792,-0.3787,-0.3781,-0.3772,-0.3774,-0.3774,-0.3773,-0.3773,-0.3789,-0.377,-0.377,-0.377,-0.377,0,-0.392,-0.3909,-0.3903,-0.3884,-0.388,-0.3876,-0.3863,-0.3855,-0.3841,-0.3833,-0.3823,-0.381,-0.3803,-0.3794,-0.3783,-0.3782,-0.3775,-0.3768,-0.3768,-0.3766,-0.3757,-0.3767,-0.3784,-0.3784,-0.3764,-0.3764,-0.3764,0,-0.391,-0.3899,-0.3884,-0.3879,-0.3871,-0.3854,-0.3849,-0.3837,-0.3826,-0.3817,-0.3805,-0.3796,-0.3786,-0.3781,-0.3777,-0.3764,-0.3765,-0.3763,-0.375,-0.375,-0.3754,-0.3769,-0.3776,-0.3782,-0.3763,-0.3763,-0.3763,0,-0.39,-0.3874,-0.3874,-0.3866,-0.3848,-0.3842,-0.3836,-0.3823,-0.3819,-0.3807,-0.3801,-0.3788,-0.378,-0.3772,-0.376,-0.3758,-0.3764,-0.3749,-0.3749,-0.3752,-0.3761,-0.3767,-0.3768,-0.3756,-0.3757,-0.3757,-0.3762,0,-0.3873,-0.3866,-0.3866,-0.3849,-0.3842,-0.3838,-0.3821,-0.3815,-0.3805,-0.3793,-0.3785,-0.3771,-0.3758,-0.3755,-0.3745,-0.3745,-0.3742,-0.3734,-0.3724,-0.3735,-0.3736,-0.3737,-0.3724,-0.3723,-0.3723,-0.3723,0,0,-0.3866,-0.3856,-0.3841,-0.3835,-0.3828,-0.381,-0.3807,-0.3798,-0.3781,-0.3776,-0.3771,-0.375,-0.3739,-0.3731,-0.3733,-0.3728,-0.3725,-0.3723,-0.373,-0.3731,-0.3732,-0.3734,-0.3735,-0.3722,-0.3722,-0.3722,-0.3722,0,-0.3853,-0.3843,-0.3841,-0.3831,-0.3816,-0.3804,-0.3803,-0.3785,-0.3778,-0.377,-0.3755,-0.3748,-0.3733,-0.3722,-0.3715,-0.3723,-0.3713,-0.3721,-0.3731,-0.3728,-0.3729,-0.373,-0.3732,-0.3733,-0.3721,-0.3721,-0.3721,0,-0.384,-0.3827,-0.3824,-0.3808,-0.3798,-0.3791,-0.3777,-0.3771,-0.3765,-0.3746,-0.3739,-0.3729,-0.3714,-0.3709,-0.3706,-0.3701,-0.3702,-0.3699,-0.37,-0.3699,-0.3695,-0.3697,-0.3699,-0.3679,-0.3679,-0.3679,0,0,-0.383,-0.3824,-0.3805,-0.3804,-0.3798,-0.3781,-0.3776,-0.3765,-0.3753,-0.3748,-0.3734,-0.3722,-0.3713,-0.3707,-0.3698,-0.3695,-0.369,-0.3694,-0.3696,-0.3698,-0.3698,-0.3695,-0.3696,-0.3679,-0.3679,-0.3679,0,0,-0.3826,-0.3804,-0.3796,-0.3792,-0.3781,-0.3762,-0.3761,-0.3751,-0.3741,-0.374,-0.3721,-0.3717,-0.3712,-0.3703,-0.3701,-0.3694,-0.3685,-0.3685,-0.37,-0.3702,-0.3704,-0.3707,-0.3685,0,0,0,0,0,-0.3804,-0.3806,-0.3799,-0.3796,-0.3776,-0.3766,-0.3763,-0.3748,-0.3742,-0.3742,-0.3729,-0.3718,-0.3698,-0.3696,-0.3693,-0.3695,-0.3675,-0.3676,-0.3677,-0.3695,-0.3698,-0.37,0,0,0,0,0,0,-0.3802,-0.3799,-0.3799,-0.378,-0.3776,-0.3765,-0.3752,-0.3748,-0.3741,-0.3739,-0.3721,-0.3717,-0.3704,-0.3696,-0.3694,-0.3696,-0.3685,-0.3676,-0.3676,-0.3677,-0.3696,-0.3698,-0.37,0,0,0,0,0,-0.3801,-0.3798,-0.377,-0.378,-0.3776,-0.3757,-0.3751,-0.3748,-0.3743,-0.3723,-0.372,-0.3732,-0.3705,-0.3702,-0.3695,-0.3698,-0.3687,-0.3686,-0.3676,-0.3676,-0.3677,-0.3697,0,0,0,0,0,0,-0.38,-0.3795,-0.3769,-0.3767,-0.3778,-0.3757,-0.3753,-0.3748,-0.3727,-0.3723,-0.3734,-0.3732,-0.3705,-0.3703,-0.37,-0.3699,-0.3688,-0.3687,-0.3687,-0.3676,-0.3677,-0.3677,0,0,0,0,0,0,-0.3796,-0.3793,-0.3768,-0.3766,-0.3764,-0.3757,-0.3754,-0.3746,-0.3727,-0.3738,-0.3737,-0.3733,-0.3709,-0.3703,-0.3702,-0.369,-0.3689,-0.3688,-0.3688,-0.3687,-0.3677,-0.3677,0,0,0,0,0,0,-0.3795,-0.3792,-0.3766,-0.3765,-0.3763,-0.3741,-0.375,-0.373,-0.3726,-0.3739,-0.3725,-0.3725,-0.371,-0.3707,-0.3702,-0.3692,-0.369,-0.3689,-0.3689,-0.3688,-0.3688,0,0,0,0,0,0,0,-0.3794,-0.3814,-0.378,-0.3764,-0.3762,-0.375,-0.3749,-0.3749,-0.3726,-0.3725,-0.3725,-0.3725,-0.3694,-0.3693,-0.3692,-0.3693,0,0,-0.3689,-0.3689,0,0,0,0,0,0,0,0,-0.3815,-0.3814,-0.3779,-0.3779,-0.3779,-0.375,-0.3749,-0.3749,-0.3726,-0.3725,-0.3725,-0.3725,-0.3694,-0.3693,-0.3692,0,0,0,0,0,0,0,0,0,0,0,0,0,0,0,-0.3779,-0.3779,0,-0.375,-0.3749,-0.3749,-0.3726,-0.3725,-0.3725,-0.3725,-0.3694,-0.3693,-0.3692,0,0,0,0,0,0,0,0,0,0,0,0,0,0,0,0,0,0,0,0,0,0,0,0,0,0,0,0,0,0,0,0,0,0,0,0,0,0,0,0,0,0,0,0,0,0,0,0,0,0,0,0,0,0,0,0,0,0,0,0,0,0,0,0,0,0,0,0,0]}],[{"header":{"parameterUnit":"kt","parameterCategory":2,"dx":1,"dy":1,"la1":30.253999710083008,"la2":30.299108505249023,"lo1":-89.0895004272461,"lo2":-89.04439544677734,"nx":28,"ny":28,"refTime":"2022-10-17T21:00:00:Z","depth":0,"parameterNumber":2,"parameterNumberName":"V-component_of_WINDS"},"data":[-6.2699,-6.2796,-6.2833,-6.2961,-6.3016,-6.311,-6.3155,-6.3217,-6.3275,-6.339,-6.3463,-6.3508,-6.358,-6.3675,-6.3754,-6.3773,-6.3805,-6.3813,-6.3834,-6.3763,-6.3756,-6.3749,-6.373,-6.3819,-6.3819,-6.3903,-6.3903,-6.3904,-6.2647,-6.2703,-6.2781,-6.2881,-6.2949,-6.2964,-6.3044,-6.3099,-6.3182,-6.3254,-6.3327,-6.343,-6.3516,-6.3586,-6.3674,-6.372,-6.3732,-6.3742,-6.374,-6.3751,-6.3677,-6.3656,-6.3731,-6.3731,-6.3731,-6.3731,-6.3731,-6.3731,-6.2564,-6.262,-6.2703,-6.2788,-6.2848,-6.2915,-6.2975,-6.303,-6.3106,-6.3203,-6.3231,-6.3324,-6.3402,-6.3525,-6.3575,-6.3649,-6.3644,-6.3666,-6.3672,-6.3677,-6.3679,-6.3559,-6.3665,-6.3665,-6.3665,-6.3664,-6.3664,0,-6.2515,-6.2542,-6.2619,-6.2707,-6.2771,-6.2842,-6.2913,-6.2951,-6.3018,-6.3078,-6.3167,-6.3224,-6.3336,-6.3424,-6.3513,-6.3561,-6.3582,-6.3586,-6.3602,-6.3592,-6.3572,-6.3587,-6.3466,-6.3583,-6.3583,-6.3582,-6.3582,-6.3582,-6.2436,-6.2495,-6.2599,-6.2648,-6.2696,-6.2773,-6.2827,-6.2882,-6.2936,-6.3031,-6.3077,-6.3165,-6.3238,-6.3373,-6.3435,-6.3518,-6.3529,-6.3571,-6.3542,-6.353,-6.3533,-6.353,-6.3538,-6.3576,-6.3577,-6.3577,-6.3578,0,-6.2388,-6.2447,-6.2552,-6.2648,-6.2673,-6.2733,-6.2815,-6.2872,-6.2919,-6.3004,-6.3027,-6.31,-6.3185,-6.3241,-6.3349,-6.3375,-6.3476,-6.3483,-6.3451,-6.3456,-6.35,-6.3497,-6.3631,-6.3653,-6.3558,-6.3558,-6.3559,0,-6.2345,-6.242,-6.2505,-6.2562,-6.2649,-6.2703,-6.2787,-6.2835,-6.2903,-6.2971,-6.3003,-6.3065,-6.3127,-6.3197,-6.3237,-6.3328,-6.3347,-6.3374,-6.3384,-6.3373,-6.337,-6.3403,-6.3399,-6.34,-6.3399,-6.3399,-6.3398,0,-6.2266,-6.2398,-6.2492,-6.2531,-6.264,-6.2682,-6.2729,-6.2805,-6.2856,-6.2931,-6.2965,-6.3047,-6.3093,-6.3156,-6.3206,-6.3185,-6.3318,-6.3299,-6.3346,-6.3345,-6.3374,-6.3371,-6.3475,-6.3397,-6.3397,-6.3397,-6.3397,0,-6.224,-6.2316,-6.2441,-6.2533,-6.2566,-6.2626,-6.2712,-6.2777,-6.2854,-6.2883,-6.2942,-6.297,-6.3053,-6.3031,-6.3146,-6.3105,-6.3148,-6.318,-6.3184,-6.3197,-6.3171,-6.3225,-6.3316,-6.3329,-6.3206,-6.3205,-6.3203,0,-6.2135,-6.2276,-6.2324,-6.2441,-6.2514,-6.2548,-6.2615,-6.2683,-6.2727,-6.2795,-6.2844,-6.292,-6.2915,-6.2947,-6.2996,-6.3049,-6.3103,-6.3043,-6.3142,-6.3145,-6.3124,-6.3208,-6.3209,-6.3289,-6.3184,-6.3186,-6.3187,0,-6.2061,-6.2192,-6.2209,-6.2258,-6.2356,-6.2416,-6.2493,-6.2582,-6.2625,-6.2695,-6.2762,-6.2869,-6.2871,-6.2922,-6.2953,-6.3001,-6.3068,-6.2996,-6.2999,-6.3009,-6.3177,-6.3179,-6.3192,-6.3078,-6.3081,-6.3083,-6.3172,0,-6.2014,-6.2091,-6.214,-6.2243,-6.2298,-6.2373,-6.2434,-6.2484,-6.2509,-6.2554,-6.2652,-6.2719,-6.2808,-6.2836,-6.286,-6.2952,-6.2946,-6.2946,-6.2929,-6.2983,-6.3014,-6.3026,-6.2878,-6.2878,-6.2878,-6.2878,0,0,-6.19,-6.2012,-6.206,-6.2138,-6.2188,-6.222,-6.2296,-6.2347,-6.2451,-6.2485,-6.2476,-6.2636,-6.2691,-6.2803,-6.2825,-6.2859,-6.2882,-6.286,-6.2956,-6.2964,-6.2972,-6.3005,-6.3016,-6.2878,-6.2878,-6.2877,-6.2877,0,-6.1896,-6.1952,-6.2026,-6.2082,-6.2168,-6.2212,-6.2229,-6.2319,-6.2351,-6.2446,-6.2471,-6.2536,-6.2661,-6.2718,-6.2763,-6.2848,-6.2863,-6.2869,-6.2897,-6.2952,-6.2961,-6.2969,-6.3002,-6.3013,-6.2877,-6.2877,-6.2877,0,-6.1835,-6.1902,-6.1943,-6.2058,-6.2113,-6.2186,-6.2184,-6.226,-6.2315,-6.2345,-6.2438,-6.2484,-6.2563,-6.2659,-6.2705,-6.2698,-6.2843,-6.2806,-6.2808,-6.2815,-6.2872,-6.2882,-6.2891,-6.2771,-6.277,-6.277,0,0,-6.1823,-6.1895,-6.1983,-6.2061,-6.2094,-6.2161,-6.2205,-6.2235,-6.2306,-6.2334,-6.2392,-6.246,-6.2534,-6.2581,-6.2653,-6.275,-6.2772,-6.279,-6.2795,-6.2799,-6.2808,-6.2866,-6.2876,-6.2767,-6.2767,-6.2767,0,0,-6.1817,-6.1923,-6.1936,-6.2035,-6.2102,-6.2193,-6.2239,-6.2257,-6.2327,-6.2325,-6.2378,-6.2398,-6.2489,-6.2532,-6.2495,-6.2648,-6.263,-6.264,-6.2617,-6.2624,-6.2629,-6.2618,-6.2501,0,0,0,0,0,-6.1844,-6.191,-6.1921,-6.1947,-6.209,-6.2187,-6.2206,-6.2251,-6.2239,-6.2274,-6.2326,-6.2338,-6.2523,-6.2492,-6.2516,-6.2557,-6.2738,-6.2743,-6.2748,-6.2742,-6.2749,-6.2754,0,0,0,0,0,0,-6.1854,-6.1885,-6.192,-6.2012,-6.2045,-6.2185,-6.2174,-6.2188,-6.2236,-6.2238,-6.2328,-6.2341,-6.2381,-6.2483,-6.2504,-6.2542,-6.2494,-6.274,-6.2745,-6.2749,-6.2744,-6.275,-6.2755,0,0,0,0,0,-6.1863,-6.1888,-6.2105,-6.2012,-6.204,-6.2117,-6.2172,-6.2184,-6.2222,-6.2302,-6.2315,-6.2252,-6.2381,-6.2402,-6.2495,-6.2531,-6.248,-6.2488,-6.2743,-6.2747,-6.275,-6.2747,0,0,0,0,0,0,-6.1869,-6.1899,-6.2112,-6.2122,-6.199,-6.211,-6.2131,-6.218,-6.2283,-6.2298,-6.2227,-6.2227,-6.2382,-6.2397,-6.2413,-6.2525,-6.2469,-6.2477,-6.2481,-6.2746,-6.2748,-6.2751,0,0,0,0,0,0,-6.1886,-6.1908,-6.2117,-6.2088,-6.2095,-6.2104,-6.2122,-6.2207,-6.2284,-6.2204,-6.2207,-6.2226,-6.2357,-6.2395,-6.2407,-6.2539,-6.246,-6.2467,-6.2473,-6.2476,-6.2748,-6.275,0,0,0,0,0,0,-6.1896,-6.1915,-6.2085,-6.2091,-6.2097,-6.2216,-6.218,-6.2323,-6.226,-6.2198,-6.2255,-6.2253,-6.2355,-6.2368,-6.2403,-6.2529,-6.2536,-6.246,-6.2465,-6.2469,-6.2471,0,0,0,0,0,0,0,-6.1904,-6.1769,-6.2051,-6.2093,-6.2099,-6.2218,-6.2221,-6.2223,-6.2259,-6.2258,-6.2256,-6.2254,-6.2418,-6.2426,-6.2434,-6.2521,0,0,-6.246,-6.2463,0,0,0,0,0,0,0,0,-6.1762,-6.1767,-6.2051,-6.2054,-6.2056,-6.2218,-6.222,-6.2223,-6.2259,-6.2258,-6.2256,-6.2255,-6.242,-6.2427,-6.2433,0,0,0,0,0,0,0,0,0,0,0,0,0,0,0,-6.2052,-6.2053,0,-6.2218,-6.222,-6.2222,-6.2259,-6.2258,-6.2256,-6.2255,-6.2422,-6.2427,-6.2433,0,0,0,0,0,0,0,0,0,0,0,0,0,0,0,0,0,0,0,0,0,0,0,0,0,0,0,0,0,0,0,0,0,0,0,0,0,0,0,0,0,0,0,0,0,0,0,0,0,0,0,0,0,0,0,0,0,0,0,0,0,0,0,0,0,0,0,0,0]}]]]